Weather History for Fort Myers, FL

Change the Weather History Date:

Tuesday, November 13, 2012

  Actual Average Record
Temperature  
Mean Temperature 74 °F 72 °F  
Max Temperature 83 °F 82 °F 90 °F (1972)
Min Temperature 65 °F 62 °F 42 °F (1968)
Degree Days  
Heating Degree Days 0 0  
Month to date heating degree days 5 0  
Since 1 July heating degree days 8 2  
Cooling Degree Days 9 7  
Month to date cooling degree days 63 110  
Year to date cooling degree days 4163 3758  
Growing Degree Days 22 (Base 50)    
Moisture  
Dew Point 63 °F    
Average Humidity 70    
Maximum Humidity 93    
Minimum Humidity 54    
Precipitation  
Precipitation 0.00 in 0.07 in 0.95 in (1925)
Month to date precipitation 0.66 1.07  
Year to date precipitation 47.43 53.33  
Sea Level Pressure  
Sea Level Pressure 30.12 in    
Wind  
Wind Speed 6 mph (NE)    
Max Wind Speed 13 mph    
Max Gust Speed 20 mph    
Visibility 10 miles    
Events      
T = Trace of Precipitation, MM = Missing Value Source: NWS Daily Summary

Daily Weather History Graph

Daily Weather History Graph

Search for Another Location

Airport:

Trip Planner

Search our weather history database for the weather conditions in past years. The results will help you decide how hot, cold, wet, or windy it might be!

Date:

Astronomy

Nov. 13, 2012 Rise Set
Actual Time 6:45 AM EST 5:37 PM EST
Civil Twilight 6:21 AM EST 6:02 PM EST
Nautical Twilight 5:53 AM EST 6:30 PM EST
Astronomical Twilight 5:25 AM EST 6:57 PM EST
Moon 6:21 AM EST (11/13) 5:32 PM EST (11/13)
Length of Visible Light 11h 41m
Length of Day
10h 52m
Waning Crescent, 0% of the Moon is Illuminated
Nov 13
Waning Crescent
Nov 13
New
Nov 20
First Quarter
Nov 28
Full
Dec 6
Last Quarter

Hourly Weather History & Observations

Time (EST) Temp. Heat Index Dew Point Humidity Pressure Visibility Wind Dir Wind Speed Gust Speed Precip Events Conditions
12:53 AM 66.9 °F - 64.0 °F 90% 30.13 in 10.0 mi NE 5.8 mph - N/A   Clear
1:53 AM 66.0 °F - 63.0 °F 90% 30.13 in 10.0 mi NE 3.5 mph - N/A   Clear
2:53 AM 64.9 °F - 63.0 °F 93% 30.12 in 10.0 mi ENE 3.5 mph - N/A   Clear
3:53 AM 64.9 °F - 63.0 °F 93% 30.12 in 10.0 mi NNE 3.5 mph - N/A   Clear
4:53 AM 66.0 °F - 63.0 °F 90% 30.12 in 10.0 mi ENE 4.6 mph - N/A   Clear
5:53 AM 66.0 °F - 63.0 °F 90% 30.12 in 10.0 mi ENE 4.6 mph - N/A   Clear
7:53 AM 68.0 °F - 64.0 °F 87% 30.15 in 10.0 mi NE 5.8 mph - N/A   Clear
8:53 AM 72.0 °F - 66.0 °F 81% 30.17 in 10.0 mi NE 5.8 mph - N/A   Clear
9:53 AM 75.9 °F - 66.0 °F 71% 30.17 in 10.0 mi NE 5.8 mph - N/A   Clear
10:53 AM 78.1 °F - 64.9 °F 64% 30.15 in 10.0 mi ENE 8.1 mph - N/A   Scattered Clouds
11:53 AM 80.1 °F 81.7 °F 64.0 °F 58% 30.13 in 10.0 mi NNE 9.2 mph - N/A   Mostly Cloudy
12:53 PM 80.1 °F 81.7 °F 64.0 °F 58% 30.10 in 10.0 mi NNE 12.7 mph - N/A   Mostly Cloudy
1:53 PM 80.1 °F 81.2 °F 62.1 °F 54% 30.08 in 10.0 mi NE 10.4 mph - N/A   Partly Cloudy
2:53 PM 81.0 °F 82.2 °F 63.0 °F 54% 30.07 in 10.0 mi ENE 5.8 mph - N/A   Clear
3:53 PM 80.1 °F 81.5 °F 63.0 °F 56% 30.08 in 10.0 mi ENE 8.1 mph - N/A   Mostly Cloudy
4:53 PM 79.0 °F - 62.1 °F 56% 30.07 in 10.0 mi NE 8.1 mph - N/A   Clear
5:53 PM 75.9 °F - 62.1 °F 62% 30.08 in 10.0 mi NE 4.6 mph - N/A   Clear
6:53 PM 75.0 °F - 62.1 °F 64% 30.08 in 10.0 mi ENE 6.9 mph - N/A   Mostly Cloudy
7:53 PM 81.0 °F 81.9 °F 62.1 °F 52% 30.10 in 10.0 mi ENE 6.9 mph - N/A   Clear
8:53 PM 80.1 °F 81.5 °F 63.0 °F 56% 30.11 in 10.0 mi ENE 5.8 mph - N/A   Clear
9:53 PM 80.1 °F 81.5 °F 63.0 °F 56% 30.12 in 10.0 mi ENE 5.8 mph - N/A   Clear
10:53 PM 77.0 °F - 64.0 °F 64% 30.13 in 10.0 mi ENE 3.5 mph - N/A   Clear
11:53 PM 69.1 °F - 63.0 °F 81% 30.12 in 10.0 mi NE 4.6 mph - N/A   Clear